Theta_e
354 355 357 361 362 361 363 364 364 364 364 366 367 366 367 367 367 366 366 365 366 365 365 365 365 365 365 365 365 365 364 364 364 363 363 363 362 362 363 364 363 363 362 362 362 362 362 361 362 363 363 361 361 362 362 363 363 362 363 362 363 363 363 362 363 363 363 363 363 363 362 362 362 362 361 360 361 360 361 361 361 357 357 357 361
354 357 358 359 362 362 363 363 363 364 365 366 367 367 367 367 367 365 365 365 365 365 365 365 365 365 365 365 364 364 364 364 364 364 363 363 363 362 362 361 361 362 363 361 362 362 362 362 361 362 362 361 362 361 362 362 363 363 362 362 361 362 362 362 362 363 363 363 363 362 362 362 362 362 361 361 361 361 362 361 361 357 356 361 359
357 357 359 360 361 362 363 364 364 365 366 366 367 367 367 366 366 366 365 365 365 365 366 366 366 365 365 364 364 364 363 364 363 363 363 363 363 362 363 364 363 362 361 363 363 362 362 361 362 362 362 362 362 362 362 360 362 363 362 362 361 361 361 361 361 362 362 362 362 362 362 362 362 362 362 362 361 361 361 360 360 360 356 360 360
356 357 358 360 362 363 364 364 365 366 366 366 366 366 367 367 366 366 366 366 366 366 366 366 365 365 364 363 363 363 363 363 363 362 363 362 362 361 362 362 362 362 362 363 363 362 363 362 361 361 362 362 361 362 362 361 361 363 362 361 361 361 360 359 360 361 361 362 362 361 360 356 359 362 361 361 361 361 361 360 360 360 360 361 361
357 357 357 358 360 362 364 365 366 366 366 366 367 367 367 367 367 367 366 366 366 366 366 365 364 364 364 363 363 363 364 364 363 362 362 361 362 362 362 362 363 363 362 362 362 363 362 362 362 362 362 361 362 361 361 362 362 363 363 362 362 361 359 359 360 360 360 362 361 360 354 355 356 361 361 362 362 361 360 360 361 361 362 361 361
357 357 357 358 359 362 365 365 366 365 366 367 366 367 367 367 367 366 367 366 366 365 365 364 364 363 363 363 362 362 363 363 363 362 362 362 362 361 362 363 363 362 362 362 362 362 362 362 361 361 362 362 361 362 362 362 361 362 362 362 362 362 361 360 359 359 361 361 360 356 354 355 356 357 361 361 361 360 361 361 359 360 361 360 359
357 357 357 357 359 362 365 365 365 367 367 366 365 366 366 367 367 367 366 365 364 364 363 363 363 363 363 363 362 363 362 363 362 362 362 362 362 361 361 362 362 362 362 361 363 361 362 362 362 361 361 361 362 361 361 362 362 362 362 362 361 360 361 361 359 359 358 355 350 352 353 354 355 355 360 361 361 361 361 361 360 360 360 360 360
357 358 359 360 361 363 365 366 366 366 365 366 366 366 366 367 366 365 364 364 364 364 364 364 363 363 363 363 362 363 363 363 363 362 362 363 362 362 361 361 362 362 362 362 362 362 361 362 362 362 362 362 361 361 360 360 361 361 361 361 361 361 361 361 361 360 358 351 351 352 354 354 355 356 360 362 361 361 362 362 361 359 360 361 361
356 357 359 360 361 365 366 366 366 366 366 367 367 366 366 365 365 364 364 364 364 364 364 364 363 363 362 362 362 362 363 362 363 363 363 362 362 363 362 362 362 363 362 362 362 361 362 362 361 362 362 361 361 361 360 361 362 362 362 362 362 361 361 361 361 359 354 353 353 354 353 353 354 354 359 362 361 360 360 359 358 359 359 361 360
356 357 360 360 362 367 367 366 366 366 367 367 367 366 366 364 364 364 365 365 365 364 363 363 363 363 364 363 364 363 363 363 363 362 363 362 361 362 362 362 363 362 362 362 361 361 361 361 361 362 362 362 361 361 361 361 361 360 360 361 362 361 361 361 360 358 353 354 355 354 356 359 353 356 359 361 360 359 359 359 358 358 359 361 360
356 359 360 361 362 366 366 366 366 366 368 367 366 365 364 364 365 365 365 364 364 364 363 363 364 364 362 364 363 363 363 363 363 363 362 362 362 362 363 362 362 362 362 362 362 362 362 362 361 361 362 361 361 361 359 359 360 360 360 362 361 361 362 362 360 354 355 354 355 355 358 361 354 354 360 361 360 360 360 360 360 361 360 359 359
357 359 360 361 367 367 366 366 366 366 366 366 365 365 365 366 366 366 365 364 364 364 364 364 364 363 363 362 363 363 363 364 363 363 362 363 362 362 362 361 361 361 362 362 362 361 361 361 362 362 362 362 361 361 360 360 360 361 362 361 361 361 362 361 355 353 353 354 355 355 355 356 355 357 360 361 360 360 360 361 361 360 359 359 359
357 359 361 362 363 366 366 366 366 366 366 366 366 365 366 366 365 365 365 364 364 364 364 363 364 363 363 363 364 364 363 363 363 363 363 363 363 362 362 361 362 362 361 362 361 361 361 361 361 362 362 362 362 361 360 362 361 361 361 361 361 361 362 361 354 354 354 354 354 354 354 354 355 360 360 360 359 360 360 360 360 360 359 359 358
357 360 361 362 362 367 366 366 366 366 365 366 366 366 366 365 365 365 364 364 364 364 364 363 364 364 364 364 364 363 363 363 363 362 363 363 363 362 362 361 361 361 362 361 360 361 361 361 361 361 362 362 362 361 361 362 361 361 361 361 360 360 362 361 359 355 355 355 356 355 354 356 356 360 359 359 359 360 359 360 360 359 359 358 358
356 359 360 361 361 362 367 366 366 365 366 366 367 366 366 366 366 365 365 365 365 364 364 363 364 365 365 364 364 363 363 363 363 363 363 363 363 363 362 362 362 362 361 360 360 359 359 360 361 361 362 362 362 361 361 362 361 360 361 360 360 360 362 357 357 355 355 357 355 355 354 354 360 360 359 359 359 359 359 360 360 359 358 358 357
355 356 360 360 361 362 362 366 366 367 367 366 367 366 366 366 365 365 366 365 365 364 364 364 364 365 365 364 364 363 364 364 363 363 364 363 363 363 362 362 362 362 361 360 359 360 360 360 362 363 362 362 361 361 362 361 361 360 361 360 360 361 361 360 355 354 354 354 355 356 355 357 360 360 359 358 359 359 359 360 359 359 358 358 357
354 357 358 359 361 361 362 362 364 365 363 365 366 366 366 366 366 365 365 365 365 364 364 364 365 365 364 364 364 364 364 364 364 363 363 363 363 363 363 362 363 362 361 360 359 359 360 362 363 363 362 362 361 360 362 362 362 362 361 360 360 361 360 361 355 353 354 356 356 354 354 356 360 360 359 359 358 359 359 359 359 358 358 358 357
355 356 357 359 359 360 361 361 363 362 362 363 366 367 366 366 365 365 366 366 365 365 364 364 364 364 365 365 364 364 364 364 364 364 364 364 363 363 363 363 363 362 361 360 360 360 361 362 363 362 362 362 362 361 361 361 362 361 361 362 362 360 361 361 354 355 356 358 355 357 356 359 362 359 359 359 359 359 359 359 358 358 358 358 357
354 356 357 357 358 359 360 362 362 362 362 361 362 364 367 366 366 366 366 366 365 365 364 364 364 365 365 363 364 365 365 365 365 364 364 365 364 364 364 363 363 362 361 361 361 361 361 362 363 363 363 363 362 362 361 360 360 361 360 360 361 361 362 359 354 355 357 354 354 354 356 360 360 359 360 360 359 359 359 359 358 358 358 358 357
354 356 356 357 357 358 360 360 361 361 361 362 362 362 365 366 366 366 366 366 366 365 365 364 364 364 364 363 364 364 364 362 364 362 364 365 365 363 364 364 364 363 362 362 362 361 362 362 363 363 363 362 362 362 362 361 360 360 359 360 360 362 354 352 353 353 354 356 356 355 359 360 360 359 359 359 359 359 359 359 358 358 357 357 358
352 353 354 355 357 358 359 359 360 360 361 361 361 362 364 366 366 366 366 367 365 365 365 365 365 364 363 364 365 362 360 359 360 360 364 363 364 365 365 365 363 363 363 362 362 362 362 362 363 363 362 362 362 362 361 361 361 360 360 360 360 354 353 350 352 355 355 356 358 356 360 360 360 359 359 359 359 359 359 359 358 358 358 358 359
347 349 352 355 357 358 358 359 359 359 360 361 362 362 362 364 362 362 363 363 364 364 363 362 364 360 365 363 361 364 358 358 360 364 362 362 362 365 364 364 363 363 362 362 362 363 364 362 363 362 363 362 362 359 361 364 360 362 361 360 357 355 351 351 351 352 353 354 357 358 361 360 360 359 359 358 358 359 358 358 358 358 358 358 358
344 347 351 355 355 356 357 357 357 358 359 360 361 362 361 361 361 361 362 365 364 364 363 363 360 360 359 358 361 361 360 362 361 363 364 363 363 365 365 365 364 364 363 362 363 363 362 363 363 363 363 363 362 362 359 357 358 364 363 362 358 354 352 349 349 350 351 354 354 360 361 360 360 359 359 359 359 359 358 358 359 359 358 358 358
344 346 350 354 354 355 355 356 356 357 357 357 360 360 360 360 360 360 360 360 361 361 360 361 361 361 361 359 359 361 360 360 364 365 365 361 360 363 365 365 365 364 364 364 362 361 360 361 362 362 365 365 360 359 358 357 358 357 359 360 358 352 349 349 349 350 352 356 356 360 359 360 360 360 360 359 359 359 358 358 359 359 359 358 358
345 347 350 351 353 354 354 354 356 356 356 357 358 357 358 359 359 359 359 359 358 358 359 360 361 360 360 361 360 361 361 360 358 358 357 358 358 358 360 359 360 358 364 358 360 361 362 359 360 362 359 359 358 357 356 355 360 358 357 358 354 350 349 350 349 349 351 353 354 360 359 359 359 359 360 359 358 358 359 358 358 359 359 358 358
345 345 348 350 352 353 354 353 355 355 356 356 357 359 358 357 357 358 358 358 358 357 359 358 359 359 358 359 361 359 360 359 359 359 361 360 360 359 361 359 358 359 365 359 358 356 356 355 359 359 358 358 356 357 355 359 356 358 356 354 350 350 350 350 351 351 352 353 357 359 359 359 359 359 359 358 359 359 359 359 359 359 359 359 359
344 345 349 351 353 353 353 354 354 354 355 356 357 359 356 357 357 357 357 357 357 357 359 358 360 360 357 358 359 357 358 359 359 359 358 359 358 357 358 360 360 359 363 359 357 358 357 355 358 358 357 358 356 355 355 356 356 355 357 352 350 350 351 351 352 352 352 354 357 359 359 359 359 359 359 358 358 359 360 360 359 359 359 358 359
344 346 348 350 353 353 354 354 353 354 353 356 357 357 357 357 357 362 359 359 358 357 359 360 363 360 358 358 364 357 358 358 359 357 357 357 356 357 359 359 359 358 361 360 355 355 356 357 359 357 356 354 351 353 353 354 354 355 356 354 351 351 351 352 352 353 353 354 356 359 359 359 359 359 359 359 359 359 360 360 359 359 359 359 359
343 345 347 349 350 353 354 354 354 355 354 357 357 357 357 357 358 357 356 363 357 357 359 359 359 359 358 359 366 357 358 358 357 355 355 355 356 357 358 355 356 356 357 357 356 356 357 358 359 359 356 352 351 348 351 352 353 351 351 352 350 351 352 352 352 354 354 354 356 358 360 359 359 359 359 359 359 359 359 359 359 359 359 358 358
344 346 347 348 349 353 353 354 356 356 356 355 355 356 356 356 357 356 357 361 356 357 358 356 356 355 355 359 362 357 357 358 356 354 354 354 354 356 359 358 358 362 361 357 358 357 356 358 359 359 357 352 352 351 351 348 349 349 349 352 351 351 352 352 352 353 355 355 356 359 360 359 359 359 359 359 359 360 360 360 359 359 358 358 358
345 345 346 347 351 352 352 356 357 358 356 354 353 353 355 356 357 355 357 357 357 358 357 355 356 354 354 358 358 359 353 356 355 352 353 353 352 354 353 356 356 359 358 361 359 360 361 359 357 356 360 359 357 358 358 350 345 347 350 349 350 351 352 352 352 353 354 355 356 357 359 360 359 359 359 359 359 359 359 359 359 359 359 358 358
344 344 346 347 350 350 352 356 357 356 356 354 354 353 355 356 356 354 356 357 357 354 354 352 355 356 359 359 359 358 363 357 353 352 353 352 351 350 353 355 357 357 356 359 359 362 364 362 364 363 360 363 357 356 356 351 344 346 348 348 350 351 351 351 352 353 354 354 355 357 357 359 361 360 359 359 358 358 358 358 358 358 359 358 358
344 345 345 348 348 350 353 355 356 356 355 354 353 353 356 357 356 356 357 358 358 353 350 351 357 360 363 364 363 365 367 358 358 358 360 353 351 350 352 357 354 360 359 363 363 361 360 359 359 363 361 361 356 353 356 352 348 344 345 346 348 348 350 351 351 352 353 354 355 356 356 358 358 361 360 360 359 359 358 358 358 358 358 358 357
342 343 344 346 348 351 355 355 357 356 355 355 355 353 355 356 357 356 359 357 355 355 356 357 359 361 362 363 365 366 365 365 363 361 359 356 352 351 353 355 359 363 365 363 359 360 359 359 357 357 362 360 356 352 352 350 346 349 346 345 347 347 348 349 349 351 352 353 354 355 356 356 357 357 359 361 361 360 359 359 358 358 358 358 357
342 342 342 344 347 352 354 354 357 356 358 356 356 354 355 356 355 354 355 357 353 353 357 357 358 360 361 363 365 368 366 367 366 362 360 358 358 357 358 358 359 364 362 362 360 360 359 358 360 355 355 357 355 355 354 350 343 343 349 347 345 348 348 347 349 351 352 352 354 354 355 356 356 357 359 357 360 362 361 360 360 359 359 358 358
341 341 342 344 345 350 352 353 354 353 354 356 355 356 355 355 354 360 355 357 351 353 356 356 358 360 361 362 365 367 366 366 366 365 360 359 358 357 357 361 363 362 362 362 361 358 359 360 362 357 355 355 353 348 352 346 342 344 341 344 350 355 349 348 347 350 352 353 353 354 354 355 356 356 360 356 356 360 362 361 361 361 360 360 360
341 340 340 342 344 349 352 352 351 351 353 354 354 354 354 353 355 356 356 355 348 350 354 356 358 358 359 361 363 368 366 366 367 367 361 361 360 360 363 363 363 362 362 361 362 365 358 361 361 363 358 356 355 349 348 344 345 345 343 344 345 349 348 352 354 347 353 353 353 354 355 355 357 363 358 356 356 357 360 362 361 361 361 361 360
342 341 341 341 345 348 350 351 351 352 352 353 353 352 352 354 354 353 356 352 347 349 351 353 356 357 359 361 365 366 367 366 365 365 362 364 362 360 362 363 363 362 360 359 358 360 359 357 358 363 360 357 353 348 344 344 349 349 343 345 348 348 347 351 355 360 348 351 353 355 356 357 359 358 358 357 356 356 357 361 362 362 362 361 361
342 340 342 341 345 347 351 351 350 350 351 353 353 352 351 352 351 351 350 351 347 347 349 350 354 358 360 363 364 365 367 367 366 367 363 361 359 361 360 360 362 360 360 357 355 360 362 357 357 358 363 358 353 351 344 349 352 345 342 341 344 348 351 349 361 346 346 345 350 356 356 355 358 359 358 357 357 356 357 357 358 358 359 363 362
341 340 343 341 344 347 349 350 349 350 350 353 351 350 348 349 346 346 346 351 346 348 348 350 357 359 362 363 363 364 367 367 367 365 362 360 359 361 363 362 360 359 357 354 354 356 357 358 358 356 355 358 360 355 346 350 343 346 346 341 346 347 346 357 352 352 354 346 349 349 349 353 354 357 358 357 358 358 356 355 359 358 358 360 363
341 339 342 340 344 347 348 347 348 349 349 350 347 347 344 345 344 343 342 346 344 348 348 350 357 359 362 362 363 365 366 366 367 365 360 363 358 359 362 358 358 358 357 356 357 356 358 362 361 361 359 352 354 350 346 345 339 336 342 343 342 348 353 351 350 346 345 344 344 349 347 348 348 352 354 356 358 359 356 354 355 356 356 356 359
340 338 342 339 344 347 347 347 346 349 349 350 347 349 346 346 343 341 340 340 347 347 345 349 357 361 361 361 363 365 364 365 367 365 362 359 358 361 358 358 357 358 358 359 356 358 360 360 360 355 360 351 350 349 346 343 340 336 335 338 342 343 347 349 345 345 346 345 343 347 346 344 345 347 348 353 355 358 357 356 356 355 355 355 356
340 338 342 340 343 346 347 347 347 349 350 351 349 350 348 350 345 342 338 339 349 348 346 352 359 359 359 360 362 363 364 365 366 367 363 362 361 361 362 361 358 361 357 356 358 357 358 359 357 354 355 355 354 355 348 347 340 346 345 343 334 332 341 347 350 348 343 343 343 342 339 341 345 343 345 345 348 356 357 357 356 356 355 356 356
340 337 341 341 341 347 346 346 349 351 351 353 353 353 350 351 347 344 340 344 344 348 351 356 358 359 357 359 362 363 364 364 365 366 366 364 364 363 364 361 360 362 357 357 358 358 359 357 358 359 355 348 346 348 350 348 346 337 331 336 334 335 330 333 339 342 344 343 342 341 340 342 343 345 346 342 344 344 351 354 354 354 356 357 357
340 337 341 341 341 345 347 347 349 352 352 356 353 352 352 350 348 345 347 347 349 345 345 352 355 358 357 357 361 362 363 362 363 363 363 362 362 362 361 358 363 364 362 359 360 359 359 360 359 357 353 350 348 349 353 345 347 352 347 337 334 330 331 334 337 336 345 340 341 341 343 343 342 341 342 342 345 346 348 350 348 352 354 354 355
341 336 342 341 341 345 347 348 349 353 352 355 354 351 349 346 343 343 340 339 339 340 339 345 351 354 354 357 362 361 361 360 361 360 362 362 364 364 362 362 365 364 361 360 362 361 359 358 360 358 356 356 352 350 347 355 346 357 349 344 340 329 330 336 335 329 345 347 343 343 342 341 343 345 343 345 345 344 348 347 348 349 350 350 350
344 341 344 341 341 346 348 349 349 352 354 354 354 351 349 346 343 344 342 339 339 340 341 342 350 351 355 355 358 360 360 360 360 360 361 362 364 364 364 363 363 364 366 363 363 361 360 359 361 355 354 360 357 349 348 348 346 349 349 346 348 350 348 340 330 338 330 337 347 341 339 340 342 342 344 344 341 341 345 347 348 349 351 351 352
346 344 345 342 341 346 348 348 350 352 354 354 352 350 347 345 345 344 345 339 340 339 341 341 345 349 352 354 356 358 359 359 359 359 361 362 364 363 364 363 362 363 365 362 360 361 361 363 361 359 361 360 358 352 350 350 342 339 349 347 348 347 339 337 347 339 334 332 336 342 340 339 341 342 343 344 344 340 340 345 346 349 350 350 351
346 345 345 343 345 345 349 349 351 350 353 352 351 349 348 345 344 344 344 341 341 342 344 346 343 347 350 353 354 356 358 358 359 358 361 363 365 363 364 362 362 362 366 361 359 360 357 361 360 361 360 360 360 357 352 351 352 348 345 347 347 345 343 337 344 339 342 329 332 335 335 343 341 341 342 343 343 343 343 343 347 349 350 351 351
346 348 347 345 346 346 349 348 351 350 352 351 351 349 347 346 343 343 342 344 344 343 342 347 342 341 348 350 352 354 356 356 360 359 360 362 363 364 364 363 362 361 364 358 357 357 357 360 361 361 362 360 360 361 353 354 355 354 350 347 343 346 341 344 341 337 339 334 330 331 334 336 331 336 344 338 338 343 344 343 345 349 348 348 350
346 348 348 346 348 345 348 347 350 351 352 350 349 349 348 345 343 344 342 346 344 342 340 343 344 340 342 348 350 353 355 354 356 360 359 361 362 364 363 363 363 363 363 360 360 358 357 360 361 361 363 363 361 359 361 361 358 357 353 347 346 346 336 343 343 340 337 336 338 337 335 338 334 336 339 343 344 341 343 342 342 343 346 348 349
Wind_Speed
6 8 6 11 11 14 16 17 18 18 18 20 20 20 20 20 20 20 20 20 19 19 18 17 17 15 15 15 15 14 14 13 13 13 13 13 13 14 14 13 13 13 13 14 15 15 15 16 16 14 14 14 11 14 13 14 13 14 14 14 16 15 15 15 16 17 17 15 15 14 13 14 14 13 13 14 13 14 14 14 12 9 6 10 14
11 8 6 7 11 15 16 17 17 17 18 19 19 19 19 20 20 20 20 19 19 19 18 18 17 16 15 15 15 14 13 13 13 13 13 14 14 14 14 14 14 14 15 14 14 15 15 16 16 15 14 13 13 14 14 13 14 13 14 15 15 15 16 17 16 16 16 15 15 15 15 15 14 14 13 13 14 15 14 14 13 6 4 12 14
9 9 7 9 13 15 15 17 17 17 17 18 19 19 19 19 19 19 19 19 18 18 17 17 16 16 15 15 14 14 13 13 13 13 14 14 14 14 14 14 15 15 15 15 15 15 15 16 15 13 14 13 13 13 13 13 15 14 14 14 14 16 15 15 15 16 16 15 16 16 16 15 15 14 13 14 15 14 15 14 14 11 7 14 12
10 8 7 12 15 14 16 16 17 17 17 18 18 18 19 18 18 18 18 18 17 17 16 16 16 16 15 15 14 14 13 13 13 13 14 14 14 14 14 14 15 15 15 16 16 15 15 14 15 14 13 14 14 14 14 14 15 14 12 12 14 14 14 13 12 12 14 15 15 11 5 5 10 15 15 15 15 16 14 14 14 14 14 13 14
10 9 8 8 10 12 16 17 17 17 18 18 18 18 18 18 18 18 18 18 17 16 16 16 16 15 15 14 14 14 13 13 13 13 13 14 14 13 14 14 14 14 14 15 15 15 14 14 14 13 13 14 14 14 14 14 14 14 13 12 13 13 14 14 13 13 14 13 12 7 5 5 6 14 14 16 16 16 15 15 14 14 15 15 14
11 9 9 8 8 10 16 17 17 18 18 18 18 17 17 17 18 18 17 17 16 16 16 16 16 15 15 14 14 14 14 13 13 13 13 13 13 13 14 14 14 14 14 14 14 14 13 13 13 14 14 14 14 14 14 13 13 14 13 12 13 13 13 13 13 14 12 12 9 4 5 6 5 8 16 15 15 15 15 14 14 15 14 15 15
13 9 9 9 8 9 14 16 17 18 17 17 17 17 17 17 17 16 16 16 16 16 16 16 16 15 15 14 15 14 13 13 13 13 14 14 14 13 13 14 14 13 13 13 14 14 13 13 13 13 14 14 14 14 13 13 13 13 12 12 12 13 14 13 14 11 10 6 4 4 5 5 4 5 15 14 14 15 15 14 14 15 15 15 15
10 9 10 9 8 12 13 15 17 17 17 17 17 17 17 16 16 16 16 16 16 16 16 15 15 15 14 15 15 14 13 13 14 14 14 13 13 14 13 13 12 13 13 13 13 13 12 13 12 13 14 14 13 13 13 13 13 13 13 13 14 15 14 14 13 11 9 4 4 4 6 5 5 5 14 14 13 14 14 14 14 15 16 16 15
10 10 10 9 10 15 15 16 17 18 17 16 16 16 16 16 16 16 16 16 16 16 15 15 15 15 14 14 14 14 13 14 14 14 14 13 14 14 14 13 13 13 12 12 12 12 12 12 12 13 13 13 13 13 12 12 12 13 13 14 14 14 14 14 13 12 5 3 3 5 5 4 4 5 12 13 14 16 15 14 12 16 16 16 16
11 10 10 8 9 15 16 17 17 17 16 16 16 16 16 16 16 16 16 16 16 16 15 15 14 14 14 13 13 13 13 14 14 14 14 14 14 14 14 13 13 12 12 12 11 12 12 12 12 13 13 13 13 12 12 12 13 12 14 14 14 14 15 15 14 9 4 3 3 5 5 6 3 3 10 12 13 14 14 14 11 12 12 16 16
13 10 9 9 12 15 17 18 17 17 16 16 16 16 16 16 15 16 16 16 16 15 15 15 14 13 14 14 13 13 14 13 14 14 14 14 14 14 14 13 13 13 12 12 11 12 12 11 12 13 12 12 12 12 12 13 13 13 13 14 15 15 15 15 11 4 4 5 4 4 9 11 4 4 13 15 15 15 16 16 16 16 16 16 14
14 11 9 9 15 16 16 17 17 17 17 17 16 16 16 16 15 16 16 16 16 15 15 14 14 14 13 13 13 13 13 13 14 14 14 14 14 14 13 13 13 12 12 11 11 11 11 11 12 11 11 11 12 12 12 13 13 13 14 15 14 16 16 14 6 5 4 3 3 5 6 5 5 9 16 16 16 16 16 16 16 16 15 15 14
15 12 10 9 10 15 16 17 17 17 16 16 16 16 16 16 16 16 16 16 15 15 14 14 14 13 13 13 13 12 13 14 14 13 13 13 13 13 12 13 13 12 11 11 11 11 11 11 12 11 10 11 12 12 12 13 12 12 13 13 13 16 15 13 5 5 5 5 6 6 5 4 5 12 15 15 16 15 15 15 15 15 15 14 13
15 12 12 10 9 17 17 17 17 16 16 16 16 16 16 16 16 16 16 16 15 15 14 14 14 13 13 13 13 13 13 13 13 13 13 13 13 13 12 12 12 12 11 11 11 11 11 11 12 11 9 10 10 11 11 12 12 14 14 15 13 14 16 11 8 5 5 6 6 5 4 3 4 10 14 15 15 15 15 15 14 14 14 14 13
16 15 12 10 10 10 18 16 16 16 16 16 16 16 16 16 16 16 16 15 15 14 14 14 14 13 13 13 13 13 14 13 13 13 13 12 12 12 12 12 12 12 11 11 11 11 11 11 11 11 10 9 9 10 11 11 11 11 12 11 13 14 14 5 5 4 5 6 5 6 4 3 10 11 14 14 14 14 14 14 14 14 14 13 13
16 15 13 10 9 9 9 15 17 17 17 17 17 17 16 16 16 16 15 15 15 14 14 14 14 13 13 13 13 13 14 14 13 13 12 12 12 12 12 12 12 12 11 11 11 11 10 11 10 9 9 8 9 9 9 10 10 11 12 11 12 14 14 7 5 5 5 5 4 4 4 4 12 12 13 14 15 14 13 14 14 13 13 13 12
14 13 13 11 11 9 9 9 12 17 17 18 17 17 16 16 16 15 15 15 15 14 14 14 14 13 13 13 13 13 13 14 13 13 13 12 12 12 12 12 12 11 11 11 10 10 10 10 10 9 8 7 6 7 9 9 9 10 11 11 13 13 13 9 5 5 5 5 5 4 4 3 9 12 13 13 14 13 13 13 13 12 12 12 11
15 14 13 12 11 10 9 9 10 10 9 13 17 17 16 16 16 15 15 15 14 14 14 14 14 14 13 13 13 13 13 14 13 13 12 12 12 12 11 11 11 11 10 10 10 10 9 9 9 8 7 6 5 7 8 8 9 10 10 12 12 13 13 10 4 4 5 6 4 4 2 7 10 12 13 13 13 13 12 12 12 12 12 11 11
14 14 13 13 12 11 10 8 8 8 8 6 7 12 16 16 15 15 15 15 14 14 14 13 13 13 13 13 14 13 13 13 13 12 12 11 11 12 11 9 9 10 10 10 9 8 8 8 8 7 6 5 6 6 7 7 7 9 11 11 13 12 13 6 4 4 5 5 5 4 3 7 9 12 13 12 12 12 12 11 11 11 11 11 11
12 13 13 11 11 10 9 8 8 8 7 7 7 8 13 15 15 15 15 14 15 14 14 13 13 13 13 13 13 11 12 10 13 10 11 11 11 9 11 10 10 9 8 8 8 7 6 6 6 5 5 4 3 4 4 6 6 8 10 10 12 12 6 5 4 5 5 5 5 4 5 7 10 11 12 12 12 11 11 11 11 10 10 10 10
10 11 11 11 11 11 10 8 9 9 9 8 7 7 10 14 13 15 15 15 14 14 14 14 12 11 10 11 10 5 5 5 7 5 10 6 9 10 10 10 9 9 8 7 6 5 4 5 5 5 4 3 2 3 3 2 3 5 6 6 7 2 4 4 5 5 5 4 4 4 7 8 10 11 11 11 11 11 10 10 10 9 9 9 9
10 10 10 11 11 10 10 10 8 9 9 7 6 6 7 10 6 7 7 10 11 12 9 6 8 5 10 6 3 5 5 4 5 8 4 6 8 11 10 9 8 7 7 6 6 5 4 5 4 5 4 3 3 1 1 1 0 2 3 4 2 0 3 5 5 5 5 5 4 5 8 9 10 10 11 11 10 10 10 10 9 9 8 8 8
10 9 9 12 9 9 9 10 9 9 10 7 7 6 7 5 6 6 6 8 8 7 5 6 3 5 4 3 3 4 4 3 4 6 5 9 7 11 10 9 9 8 6 5 4 5 6 5 4 4 4 3 1 1 1 1 1 3 3 2 1 2 3 6 6 5 5 4 3 8 9 9 9 10 10 10 10 10 10 9 8 8 7 8 8
11 10 10 10 9 9 10 9 9 10 8 7 6 6 6 6 5 5 5 5 5 5 4 4 4 5 4 3 3 3 3 3 9 13 10 4 6 9 10 9 9 8 7 4 5 5 5 4 3 3 2 1 1 3 1 2 2 2 3 2 2 2 4 5 5 5 5 5 4 11 10 10 9 10 10 10 10 10 9 8 8 8 7 7 7
9 9 10 10 10 10 9 9 9 9 8 7 8 7 6 6 5 5 5 5 5 5 4 4 4 4 5 4 4 3 3 2 4 5 5 4 3 3 3 3 3 3 5 3 3 2 3 2 0 0 1 1 2 2 1 2 2 3 4 3 3 4 5 6 5 4 4 4 4 10 10 10 10 10 10 10 10 9 9 9 8 8 7 7 7
8 9 11 11 10 10 10 9 10 8 8 8 8 7 7 6 6 6 5 5 6 5 4 4 4 4 4 3 5 5 3 3 3 4 4 4 3 3 3 3 2 2 2 4 3 2 0 1 1 2 2 3 3 2 2 2 3 1 2 2 5 5 6 6 5 5 4 4 4 10 10 10 10 10 10 10 9 9 9 9 8 8 7 6 6
8 8 10 9 9 10 10 10 10 8 9 8 7 7 6 6 6 6 6 6 6 6 5 5 5 5 4 3 4 5 4 4 4 4 4 4 4 3 2 2 3 2 2 4 3 2 2 2 3 3 2 1 1 2 3 3 3 2 2 3 5 7 6 6 6 5 4 4 5 11 10 10 10 10 10 10 10 9 10 9 8 7 7 6 6
9 10 9 9 9 10 10 10 8 8 8 8 7 7 5 7 7 7 6 7 6 6 6 6 5 6 4 4 3 5 5 4 4 4 4 3 3 2 2 2 1 0 2 2 2 1 2 2 1 1 2 1 2 3 3 3 2 1 2 5 6 6 6 6 6 6 5 4 3 9 10 10 10 10 9 10 9 9 9 9 8 7 7 7 7
11 11 10 10 11 10 10 9 9 8 7 9 8 6 5 6 6 6 5 6 5 6 6 6 6 5 4 4 2 6 5 4 4 4 4 3 2 2 2 1 0 0 1 1 2 1 1 1 1 2 2 3 2 3 3 3 2 3 4 5 6 5 6 6 6 6 5 4 4 7 11 11 10 10 10 9 9 9 9 9 8 8 6 6 6
12 11 11 10 9 11 11 10 9 7 9 9 7 6 6 6 6 6 6 6 5 5 6 6 6 5 5 4 3 4 6 6 5 4 5 4 3 2 2 1 1 0 1 2 1 1 2 2 2 2 2 4 3 4 5 4 5 5 4 6 7 6 6 7 6 6 5 4 4 4 11 10 10 10 10 9 9 9 9 9 8 7 6 6 5
12 12 10 10 10 11 10 10 8 6 7 8 7 7 7 7 6 5 6 6 5 6 6 6 6 6 6 6 4 5 5 6 5 5 4 4 3 2 2 1 1 2 1 2 3 3 3 3 2 3 1 4 3 4 2 4 5 5 4 6 6 5 5 6 6 6 6 5 4 3 6 11 10 10 9 9 8 8 8 8 8 7 7 6 6
12 12 10 8 12 12 11 10 9 7 7 8 7 8 7 6 6 6 5 5 6 6 6 6 6 6 6 5 5 5 4 5 6 5 5 5 4 4 4 3 3 2 2 2 2 2 1 0 2 2 2 1 3 4 3 1 4 5 3 4 7 7 5 6 7 7 6 5 5 5 4 5 10 9 9 9 8 7 7 7 7 7 7 7 7
10 12 11 11 14 12 12 10 10 9 7 9 8 8 6 6 6 6 5 6 6 6 5 5 6 7 6 6 6 5 4 6 7 8 7 6 5 4 4 3 2 3 3 2 2 2 1 0 1 1 2 2 2 4 3 2 2 6 4 6 6 7 7 6 6 7 7 6 6 5 5 4 3 9 9 8 8 8 7 7 7 7 7 8 8
9 9 11 12 12 9 10 9 9 10 8 8 8 7 6 6 6 5 6 6 5 5 5 6 7 6 6 5 5 5 5 5 6 5 7 7 6 5 4 4 4 3 2 2 4 2 1 0 0 3 2 0 2 3 2 3 2 1 3 4 6 6 7 7 6 6 7 6 6 5 5 4 4 3 3 8 7 8 8 8 8 9 9 9 9
8 12 13 12 12 11 10 9 10 10 8 9 9 8 7 6 6 5 6 5 5 5 6 6 6 6 6 5 4 4 5 4 4 5 5 6 6 5 4 4 4 3 3 2 2 2 1 0 1 0 1 1 1 1 1 2 1 5 2 2 5 5 6 8 6 7 7 6 6 6 5 5 5 4 4 4 7 8 9 9 9 9 9 9 10
11 13 12 11 11 13 11 11 11 11 6 10 8 7 8 7 6 6 6 5 6 6 7 6 6 6 5 5 4 4 5 5 4 4 5 4 5 5 4 4 3 3 4 2 2 1 0 1 1 1 0 1 0 3 0 1 1 2 4 5 3 3 3 5 8 7 7 6 6 6 6 5 5 5 5 4 4 6 11 12 12 11 11 11 10
10 14 11 12 9 14 11 14 13 9 9 10 8 6 8 6 6 7 6 4 6 6 7 6 6 6 5 5 4 4 4 5 4 4 4 4 5 5 4 3 2 3 3 1 1 1 2 2 1 1 1 1 2 2 3 2 2 3 3 2 5 5 4 0 0 6 7 8 6 6 6 6 6 8 6 5 6 5 9 12 12 12 12 12 11
10 15 10 13 11 12 12 13 10 9 9 8 7 7 6 6 7 7 4 4 5 6 7 7 7 6 6 5 4 5 4 5 4 4 4 4 4 4 3 4 3 3 3 3 1 1 0 2 1 1 2 1 2 3 4 3 2 2 3 3 4 3 6 3 2 6 7 7 6 7 7 7 7 7 7 7 7 6 6 9 13 13 12 11 11
10 15 9 11 10 11 11 12 10 9 9 7 7 6 5 5 7 6 5 3 4 6 6 6 6 7 7 6 5 4 4 5 4 4 5 4 4 4 4 3 3 3 3 2 1 1 1 1 1 1 0 3 4 4 5 2 1 4 4 3 3 3 2 3 1 3 4 8 9 8 7 7 7 7 8 7 6 6 6 5 6 5 7 12 13
10 14 10 11 10 10 12 11 10 10 9 6 6 6 6 6 8 6 5 3 5 6 6 6 8 7 7 7 6 5 4 5 4 4 4 4 4 3 4 4 3 3 3 2 1 0 1 1 1 0 3 3 1 1 3 4 5 5 3 3 2 1 2 2 3 3 3 4 5 7 9 8 7 8 8 7 7 7 6 6 6 6 6 8 13
12 14 11 11 11 11 13 13 10 10 9 8 7 6 7 6 6 7 6 5 6 5 6 7 8 8 8 7 7 5 5 5 5 4 4 3 4 3 5 4 3 3 3 3 2 1 1 0 0 1 1 2 1 2 4 5 5 2 2 3 3 2 1 2 3 4 4 4 3 6 6 6 7 8 7 7 7 6 6 7 7 6 6 6 7
13 15 11 12 12 12 14 13 9 10 9 9 8 5 6 6 7 8 5 4 4 5 5 7 8 8 8 7 6 6 6 5 5 5 4 4 4 3 4 5 4 3 3 2 2 1 1 1 1 1 0 0 1 0 4 3 1 2 2 0 1 1 3 2 3 5 5 5 5 4 6 6 5 6 5 7 7 7 7 7 6 7 6 6 6
14 16 11 11 12 11 12 13 9 10 10 9 8 5 5 5 6 7 6 4 3 5 5 7 8 8 8 7 7 7 6 5 5 6 5 5 4 4 4 5 4 4 3 2 2 2 2 1 2 1 0 0 1 1 3 2 1 2 2 3 1 1 2 2 1 2 5 3 5 3 5 6 7 5 6 7 8 8 7 7 7 6 7 7 6
13 15 11 12 11 10 12 12 11 11 10 9 8 6 8 4 5 8 6 5 4 4 3 9 7 9 8 7 7 7 6 6 6 5 5 5 5 5 4 5 5 4 5 4 3 3 2 2 2 2 2 0 1 1 1 3 2 4 2 2 3 4 0 1 2 2 1 4 6 5 5 5 8 5 6 6 6 6 7 7 8 7 7 7 7
14 15 13 12 11 12 14 13 12 11 10 10 9 8 8 5 5 7 4 3 2 3 4 8 8 8 8 6 8 8 7 6 6 6 5 6 6 5 5 5 5 5 5 4 5 5 4 4 4 3 2 2 0 0 1 2 3 3 2 1 1 2 1 2 1 3 2 3 3 4 5 4 7 8 7 7 7 6 8 8 7 7 8 8 7
15 15 13 12 12 11 13 13 11 11 12 11 10 9 10 7 7 8 6 6 6 5 6 9 8 8 8 6 7 8 7 6 6 6 5 5 6 6 5 5 5 5 5 5 4 3 4 4 5 4 3 2 2 1 1 2 2 3 3 3 3 3 3 1 3 1 3 3 3 3 7 6 8 7 5 5 7 7 7 7 6 6 6 5 6
15 15 13 12 13 11 13 13 12 10 11 12 10 10 8 8 9 8 8 9 8 6 5 6 8 7 6 7 7 7 7 6 6 6 5 5 5 6 6 5 5 5 5 4 4 5 4 3 4 4 4 3 2 0 1 1 2 1 1 3 2 1 4 2 1 0 1 3 2 2 8 5 8 7 7 7 6 6 5 5 6 6 5 5 5
15 16 13 13 14 12 14 14 11 11 11 11 11 11 10 9 8 6 9 9 9 8 7 6 7 6 9 8 7 7 7 5 6 6 5 6 5 6 6 5 5 5 5 5 4 4 3 3 4 5 3 3 3 2 1 1 1 1 1 1 1 1 2 2 3 4 2 1 3 3 3 5 4 6 6 6 6 6 6 5 5 6 6 6 6
16 17 14 15 12 13 15 13 13 13 11 14 11 10 11 10 8 6 7 8 8 7 6 6 7 6 9 7 8 7 7 7 6 7 5 6 6 6 5 4 4 5 5 5 4 5 5 5 5 5 4 3 3 2 1 1 1 1 0 1 3 2 2 1 1 1 1 1 2 2 5 1 3 7 7 6 5 6 7 6 6 7 7 7 6
16 15 15 14 12 13 15 15 14 13 12 14 12 10 11 10 9 6 8 8 7 7 7 6 7 6 8 8 8 7 7 7 5 7 6 6 6 6 5 5 5 4 5 6 5 4 4 5 5 5 4 3 3 3 3 3 2 2 1 3 1 1 1 0 0 0 1 1 2 3 3 1 3 4 2 3 5 8 7 6 7 7 7 6 6
15 16 15 15 13 15 16 16 15 13 13 14 13 12 11 11 10 7 9 8 9 10 9 5 8 7 7 8 8 7 7 7 5 6 7 6 6 6 6 6 4 4 4 4 3 6 6 5 6 5 5 5 4 3 2 3 3 1 1 3 3 4 3 2 2 2 2 0 1 2 2 1 2 1 2 4 4 7 7 7 8 6 7 7 7
Wind_Direction
152 140 147 136 130 126 121 121 121 120 117 115 115 115 117 115 115 115 116 116 113 114 115 115 113 108 105 103 100 99 100 102 104 104 100 97 95 91 89 88 88 89 89 85 85 84 85 88 87 86 90 87 85 93 100 87 84 83 90 94 92 91 91 97 98 96 96 97 96 93 90 94 97 94 89 90 92 91 91 89 88 95 96 105 105
149 139 135 131 132 129 126 125 125 123 120 118 118 119 118 117 117 117 116 115 115 117 118 115 112 109 108 105 105 104 106 107 106 103 101 98 94 93 93 93 93 93 92 90 88 87 86 85 85 86 87 89 89 87 89 92 87 88 92 93 96 94 94 96 94 95 93 93 92 91 91 94 98 99 97 96 93 94 96 97 97 95 96 97 99
136 135 134 139 142 134 130 130 128 126 124 121 121 121 119 118 117 114 114 114 115 116 114 112 110 110 107 107 108 108 107 104 102 100 97 94 93 92 93 93 93 91 88 90 90 90 88 88 93 92 94 95 93 89 92 95 95 94 97 99 99 91 87 87 90 87 88 88 89 87 85 89 91 94 96 96 97 97 99 100 103 99 99 100 98
133 130 135 143 143 139 136 134 131 129 128 125 123 122 120 117 115 113 113 114 115 113 111 111 110 110 108 110 111 111 106 102 99 97 94 93 94 95 96 97 94 93 97 95 90 87 87 90 93 96 94 89 88 91 90 89 91 97 101 100 94 89 96 93 79 87 92 87 84 77 69 68 85 91 97 101 101 99 100 101 104 106 104 103 101
132 134 142 141 144 144 139 138 136 134 130 127 125 122 120 117 116 116 115 115 114 113 112 111 112 110 112 111 111 109 103 99 97 97 96 94 93 94 94 94 95 94 93 92 93 91 90 91 89 90 88 89 89 91 91 91 93 98 99 98 98 101 99 101 92 91 93 90 90 84 78 81 93 97 99 98 99 100 99 99 101 103 103 101 100
138 138 140 142 148 148 144 141 139 135 129 126 123 121 120 119 118 117 115 114 113 113 114 115 113 113 114 112 109 107 106 103 101 98 97 97 96 94 95 95 93 93 92 94 92 90 88 89 90 92 92 91 90 91 91 92 95 96 96 97 97 102 99 96 103 103 96 87 72 58 75 78 82 95 99 98 97 98 102 104 104 102 103 105 105
136 139 140 143 147 152 147 145 137 132 129 126 124 122 122 120 117 115 115 115 115 116 116 118 117 116 114 113 111 113 112 112 107 103 101 99 99 95 94 96 95 96 97 97 94 94 92 87 88 89 91 90 91 92 94 95 94 93 93 93 96 98 102 103 104 99 91 78 69 49 68 69 75 92 100 95 92 90 94 99 101 100 101 98 98
134 137 142 140 142 151 155 143 136 133 131 128 125 124 122 119 117 116 118 119 119 119 119 117 118 117 117 115 114 112 112 115 111 104 97 98 101 100 99 97 103 101 100 98 97 94 91 91 90 90 89 91 91 91 94 96 92 88 88 92 94 96 99 105 106 103 92 71 58 65 83 82 74 83 99 93 97 101 98 95 93 100 100 101 102
134 135 132 133 142 150 145 137 135 133 130 129 127 125 122 120 120 122 123 121 120 120 120 121 120 119 117 113 114 117 117 113 109 105 102 101 102 101 98 100 100 102 100 99 100 98 97 97 96 90 92 93 92 93 93 90 87 87 91 95 101 104 105 106 105 97 85 73 74 78 87 88 88 91 100 102 103 104 104 101 105 97 98 98 98
133 128 127 130 140 140 138 137 134 132 131 130 128 126 125 126 126 127 125 123 122 123 122 120 117 115 110 119 119 118 116 111 108 106 106 104 104 103 104 107 107 103 103 102 101 100 99 98 94 92 92 93 95 94 90 87 89 96 100 102 103 109 110 106 103 100 89 71 74 107 107 93 74 93 111 107 104 103 103 106 102 101 98 96 98
128 126 126 133 139 139 139 136 135 134 133 132 130 130 131 129 129 128 127 124 123 121 119 116 115 118 122 121 119 118 115 112 110 109 108 106 107 106 105 106 105 106 106 105 101 100 101 99 98 93 90 91 93 91 90 89 93 97 95 100 108 109 108 104 99 90 86 78 68 90 100 92 78 82 107 108 109 108 105 100 98 96 96 96 96
128 128 130 134 141 138 137 136 135 135 134 133 133 131 129 132 133 129 127 125 121 120 121 121 123 124 123 122 119 119 114 112 110 108 108 106 106 108 104 102 102 101 103 105 107 105 102 100 100 96 87 87 90 91 91 88 85 91 99 102 102 106 106 104 96 94 99 101 89 82 81 84 86 102 105 110 107 103 100 98 98 97 99 100 100
132 128 127 134 135 139 136 136 136 136 135 135 132 132 135 134 132 130 127 124 124 127 126 126 125 124 124 121 120 118 113 111 109 109 108 108 108 106 103 105 105 104 104 103 104 103 101 101 100 97 91 88 89 91 90 83 86 95 101 103 103 108 107 102 91 89 88 81 79 81 81 82 98 108 109 107 104 102 100 99 100 101 101 102 104
127 128 134 135 137 138 138 137 137 138 138 136 134 136 135 134 133 130 129 128 129 128 130 129 127 127 123 122 120 117 113 111 111 110 110 110 111 113 114 106 99 102 104 105 105 104 105 105 105 103 99 90 90 92 93 94 97 100 100 106 107 108 108 104 98 91 88 87 89 83 79 89 103 109 109 109 108 106 105 105 105 104 105 106 108
129 133 134 134 135 138 139 138 138 139 140 139 138 138 136 134 133 133 133 131 131 131 130 128 126 125 125 123 121 117 115 112 110 111 110 111 113 113 111 106 105 105 104 106 107 110 109 106 105 106 104 99 93 94 101 103 101 105 102 103 111 108 104 97 102 103 95 93 89 93 87 91 111 109 110 111 110 110 110 110 109 108 108 108 110
132 132 131 131 134 137 136 142 142 144 144 140 139 138 137 136 136 135 134 134 132 132 130 129 126 127 126 123 121 119 116 116 114 113 114 116 116 115 112 110 111 110 108 110 112 113 114 112 110 104 98 94 96 101 103 104 101 99 105 107 105 108 110 105 99 102 101 99 96 94 96 105 115 119 117 116 115 115 113 110 109 111 111 110 110
131 130 131 134 135 135 138 141 146 143 141 140 138 138 139 138 138 137 136 135 134 132 132 128 128 128 127 124 121 119 117 116 118 119 120 120 120 121 117 116 115 115 117 114 114 113 110 110 106 103 104 106 100 106 109 105 100 102 105 105 106 107 112 110 109 112 112 104 101 99 100 105 123 121 118 118 118 116 113 112 111 113 114 112 112
134 137 135 137 141 139 141 141 141 139 144 138 138 140 140 140 139 138 137 135 134 133 133 131 129 129 128 126 122 120 120 121 120 120 120 118 120 118 119 119 120 121 119 116 116 116 114 109 105 108 110 111 116 109 105 107 107 106 112 118 115 118 118 110 114 119 120 117 104 101 96 124 124 124 124 123 119 117 117 117 117 116 116 116 114
139 139 140 142 141 144 137 135 139 139 137 133 136 142 142 141 139 140 137 136 135 135 134 132 130 130 130 128 124 122 122 121 122 122 122 122 122 121 123 126 122 122 123 122 119 119 114 109 113 117 121 114 104 102 101 106 110 112 115 116 118 116 114 106 103 98 87 92 102 103 108 117 125 124 125 126 123 120 121 121 121 119 118 119 118
138 142 144 144 145 137 139 144 141 140 138 139 137 141 143 142 141 139 138 137 137 138 136 133 131 130 130 124 122 120 121 122 120 119 120 124 127 129 129 133 131 129 129 123 119 117 120 121 122 124 120 121 111 108 107 102 111 109 110 114 115 113 115 121 106 91 99 104 106 106 126 126 126 126 126 126 125 123 122 122 123 124 120 119 120
144 149 147 148 141 142 149 146 148 146 142 139 138 139 146 142 140 140 140 140 141 138 136 134 132 130 122 122 115 105 104 108 115 124 126 132 139 134 130 132 135 136 134 129 130 132 122 117 122 124 121 111 112 85 88 82 104 120 113 125 131 100 135 122 106 95 96 100 110 120 133 125 124 126 127 127 127 125 124 125 125 123 121 119 115
151 150 147 142 141 152 150 149 152 146 138 138 140 146 142 140 139 140 141 143 141 137 132 134 135 122 121 113 99 109 112 116 131 127 126 133 135 138 135 132 130 126 121 127 139 143 155 121 128 126 134 137 126 78 37 356 86 143 136 134 99 233 114 104 101 101 102 111 116 137 133 131 129 128 126 127 126 128 128 125 122 123 126 124 120
149 146 141 142 151 151 151 154 154 140 140 144 144 145 141 141 143 144 150 147 142 133 137 134 119 116 106 107 100 96 113 120 117 131 128 130 132 136 136 134 135 130 127 134 143 148 136 126 132 136 137 151 144 323 235 203 234 228 182 171 153 174 113 115 108 105 103 115 124 140 137 132 131 129 128 130 131 130 127 128 126 126 126 126 125
147 146 140 146 153 154 156 156 149 143 145 145 144 146 147 148 149 149 152 140 124 128 128 130 134 118 121 124 105 102 121 157 142 134 130 122 128 129 132 132 131 131 128 120 125 134 132 134 139 146 119 134 238 264 259 235 213 198 186 196 195 145 127 110 110 112 121 129 140 142 139 139 139 136 139 141 138 134 135 138 134 134 131 129 125
148 139 140 151 158 155 155 153 146 149 148 143 147 155 150 147 152 152 152 139 128 133 137 133 134 124 136 148 139 135 140 138 96 103 110 120 104 98 98 79 84 97 109 99 63 41 36 11 307 191 233 243 266 251 271 305 254 197 196 166 163 151 117 114 112 112 115 121 140 143 142 143 142 145 147 148 147 141 141 144 143 139 137 134 131
149 139 147 151 157 157 156 152 149 159 147 146 153 156 150 153 151 159 154 142 141 146 150 141 135 137 152 175 156 141 146 133 101 107 105 108 100 97 97 117 108 112 84 92 90 78 20 309 232 212 242 225 240 263 246 272 294 245 212 126 145 130 122 121 115 110 115 128 141 143 145 145 148 148 150 152 154 152 151 152 154 148 139 136 133
152 144 142 148 153 154 152 154 155 157 142 148 155 152 157 153 152 159 156 156 154 153 160 151 147 152 170 186 157 142 149 139 119 109 99 106 106 98 101 83 97 99 119 120 123 155 187 245 236 208 219 224 245 230 252 242 244 266 220 143 131 126 126 124 122 120 127 135 150 149 148 149 151 154 156 158 160 163 162 163 161 154 148 148 148
145 146 145 148 158 156 151 155 155 152 144 150 149 154 152 150 156 159 156 165 157 162 160 159 148 159 181 190 164 143 147 140 134 138 141 123 122 132 92 59 30 88 141 140 141 146 186 237 251 321 306 265 272 260 241 244 215 183 133 128 127 131 131 127 129 133 137 147 158 157 155 155 155 158 160 161 164 166 168 169 166 166 165 161 163
146 148 149 153 160 152 158 153 157 155 146 147 152 151 147 149 146 156 163 169 160 160 159 156 154 166 179 188 181 141 150 146 151 151 126 109 119 116 107 125 123 307 143 208 159 178 191 226 202 209 222 259 245 261 254 243 188 191 155 125 137 136 130 133 136 141 144 151 159 167 163 162 163 162 164 165 166 165 165 167 167 169 167 162 163
150 147 152 157 157 151 161 156 161 151 144 146 151 150 156 157 159 169 168 164 168 162 155 162 163 167 178 190 177 150 156 159 156 142 144 143 133 131 110 91 138 303 196 251 128 132 218 259 187 216 237 239 241 247 237 226 181 171 146 129 143 148 140 142 143 146 147 153 162 178 171 172 170 168 169 168 167 165 164 164 164 164 164 162 160
147 152 155 161 151 157 156 149 150 150 142 136 146 155 161 165 167 167 156 164 169 157 162 164 167 169 178 177 169 173 156 160 151 151 145 144 143 135 138 161 182 239 235 214 169 187 221 226 221 237 203 217 223 224 210 183 164 151 166 148 139 144 144 141 143 146 153 160 164 177 182 179 178 175 174 173 169 167 163 163 163 164 162 163 166
152 157 161 156 151 161 151 148 152 156 152 141 149 156 168 167 170 152 165 170 157 174 175 170 166 161 169 160 162 168 157 149 146 157 160 152 156 168 163 163 201 201 215 237 171 203 196 137 263 256 229 280 310 327 315 155 143 168 168 140 133 144 153 154 151 157 157 157 165 176 181 186 184 183 181 178 175 173 168 168 167 169 168 172 178
153 156 161 154 155 159 150 150 155 161 161 151 157 163 169 162 156 158 168 171 172 176 173 151 143 139 142 148 149 148 146 137 157 162 156 153 159 159 170 173 186 198 214 210 132 56 47 15 331 356 352 359 353 305 320 323 175 156 159 141 141 150 159 169 157 157 158 161 168 173 175 183 194 191 189 185 184 183 182 181 180 182 182 187 185
152 155 161 155 160 154 150 152 158 164 169 156 159 162 168 155 151 159 170 170 176 147 143 135 133 126 129 132 132 134 125 122 128 130 138 147 159 166 165 171 183 204 181 139 119 156 156 137 36 31 336 128 259 263 347 307 93 33 136 143 153 167 161 170 169 154 152 164 170 171 176 176 186 184 187 195 197 193 193 199 194 195 196 196 198
149 156 165 157 167 146 152 157 163 167 179 151 159 162 160 155 157 166 174 184 146 144 133 129 123 124 124 126 134 127 125 118 116 122 123 136 145 152 155 164 176 176 128 133 148 145 106 177 103 85 319 314 312 321 261 271 118 63 123 121 146 168 157 164 164 149 161 166 168 173 173 178 180 173 188 191 203 204 203 208 207 206 208 209 209
156 157 167 159 162 146 154 155 163 175 170 151 156 158 158 161 162 167 177 185 143 145 130 130 128 126 126 127 130 124 118 117 112 115 123 129 131 136 151 164 153 127 132 137 118 119 148 341 151 146 329 321 282 282 327 206 110 119 123 112 114 99 90 115 159 167 165 161 175 171 174 178 179 179 188 187 198 209 210 212 212 212 212 216 219
155 158 168 161 156 152 150 153 167 168 154 147 158 158 159 157 154 164 174 184 148 152 136 138 137 139 133 136 138 126 123 120 114 115 119 128 123 124 145 135 124 119 110 117 88 158 156 218 243 221 156 306 328 297 295 178 201 167 118 103 97 88 61 336 144 158 161 169 173 170 175 183 184 189 190 185 195 207 214 216 216 217 218 218 222
155 161 165 162 155 154 148 155 160 150 148 149 156 158 153 141 143 159 182 184 146 151 142 144 150 146 139 141 143 136 131 127 127 126 119 119 123 134 125 119 112 96 93 95 145 301 255 189 200 221 182 146 227 262 220 224 203 138 116 94 57 111 161 205 163 132 156 171 167 176 185 181 184 188 187 188 194 200 205 213 218 220 220 221 224
157 162 163 160 153 152 147 154 157 150 149 151 154 152 150 137 136 166 186 201 152 151 155 154 145 146 144 148 144 142 139 126 130 132 118 112 100 109 110 105 104 100 99 89 54 6 340 26 115 341 301 208 210 222 191 177 99 115 110 97 84 66 158 172 116 164 160 174 174 179 183 186 189 185 187 187 189 192 196 199 209 219 224 225 225
156 162 159 161 158 147 150 152 159 152 153 153 155 151 151 148 147 165 188 206 166 164 167 143 143 145 149 148 149 153 143 134 136 130 124 119 116 125 122 122 122 121 117 112 113 323 321 4 24 353 335 325 275 117 71 91 76 83 111 111 119 121 111 192 185 171 182 178 176 161 172 190 184 191 187 185 188 186 188 195 201 207 215 226 227
155 162 160 164 165 148 153 157 159 154 158 157 167 158 161 154 149 175 186 203 175 171 169 142 146 151 150 149 154 150 146 146 140 139 134 130 143 134 123 135 143 145 144 146 166 272 309 200 168 306 357 13 333 65 98 108 88 50 36 100 167 211 205 189 195 200 176 207 205 163 182 169 181 191 183 189 183 180 186 194 199 204 211 216 226
160 166 167 164 165 150 155 158 155 157 158 161 166 161 166 161 157 175 182 187 169 174 162 146 147 148 149 151 152 155 154 157 151 149 140 144 145 139 150 152 158 163 157 136 145 186 252 307 71 352 298 120 316 231 140 86 53 126 118 345 325 317 206 251 193 202 203 191 205 164 174 190 195 192 174 177 179 184 192 194 200 201 205 208 214
161 169 167 159 162 155 157 159 157 159 158 160 166 161 165 163 147 176 172 182 187 178 162 142 146 148 155 155 156 155 159 165 160 156 152 157 159 168 174 161 162 166 138 143 172 186 224 189 137 147 351 274 234 269 113 105 188 174 142 99 178 76 322 356 314 246 212 177 208 202 183 163 196 172 177 175 174 189 190 194 202 199 200 206 207
162 168 168 163 163 158 159 158 159 159 158 165 162 166 170 170 149 162 176 166 191 161 120 131 141 144 158 163 155 160 165 166 173 170 163 164 169 177 165 162 170 166 157 166 178 189 190 233 206 200 140 39 25 306 189 149 152 110 108 180 198 131 62 300 252 285 242 213 191 187 214 154 177 180 167 192 189 174 191 198 198 196 195 201 200
166 171 172 167 169 164 161 161 160 160 164 165 168 162 170 171 149 163 155 155 127 148 108 139 146 151 160 163 162 164 166 168 177 180 178 170 169 163 159 174 166 178 161 164 179 186 188 201 198 160 157 145 105 329 311 143 159 151 143 83 19 39 199 238 184 285 297 286 239 199 209 154 166 184 179 192 190 184 189 191 191 177 185 189 196
168 173 172 171 164 162 161 160 160 160 166 169 168 165 179 174 167 167 164 169 169 179 165 156 158 160 171 169 155 165 167 172 175 185 179 169 166 164 166 175 175 171 164 176 186 187 198 194 184 167 167 164 149 153 331 313 161 131 156 168 164 168 187 234 88 269 308 224 230 227 202 181 180 185 199 197 184 190 190 185 186 186 193 199 197
167 171 173 172 165 162 164 161 163 163 168 172 171 168 170 186 179 171 172 170 167 192 180 154 160 162 159 164 160 165 176 173 179 183 176 172 160 165 168 171 183 178 180 173 178 193 199 198 167 148 174 177 129 93 110 315 358 354 231 241 227 179 147 112 208 150 345 317 316 242 197 208 192 185 193 205 189 193 208 193 188 189 196 202 206
163 170 173 176 168 166 167 164 164 167 168 174 176 175 174 181 183 171 170 171 172 178 177 170 163 165 162 165 165 172 179 186 172 179 170 168 166 172 174 181 180 194 180 179 183 202 195 160 151 163 156 162 151 154 193 241 138 268 269 339 333 305 141 154 161 160 169 207 314 322 244 228 205 203 203 210 204 201 204 206 189 191 202 204 206
166 171 174 178 170 168 167 166 167 169 170 176 176 180 176 179 182 161 166 177 168 171 170 170 169 159 158 163 170 174 177 191 175 176 174 168 170 174 176 186 182 181 182 186 198 183 178 135 137 142 162 182 180 179 133 212 170 254 148 168 60 17 344 333 255 97 143 96 288 262 286 329 146 214 220 217 216 194 207 190 194 197 202 206 202
171 169 172 173 173 169 170 171 169 173 172 176 179 177 179 177 179 164 165 169 166 169 165 165 178 163 158 168 174 171 176 187 177 178 172 169 172 172 174 181 198 195 176 195 204 168 167 154 159 155 172 173 203 165 189 219 207 236 159 124 86 0 17 1 254 279 326 142 198 283 303 282 142 236 246 227 174 202 198 183 201 200 202 203 204
169 168 171 177 174 176 173 175 174 173 172 177 178 178 179 180 183 170 171 164 169 165 174 167 175 174 162 176 173 175 175 185 177 176 177 171 173 173 174 181 189 202 199 195 201 172 176 170 168 168 162 169 178 181 207 233 219 212 140 156 168 171 190 181 232 214 168 236 5 297 289 350 240 302 288 245 177 170 182 188 207 200 182 202 200